Location: Potomac
(46.8816°N, 113.5795°W)
Time: 07:36:24
(UTC+00:00)

NANOSAT C BR1 - Pass Details

Date: 28 June 2022
Orbit: 584 x 599 km, 98.0° (Epoch: 09 August)

Event Time Altitude Azimuth Distance (km) Brightness Sun altitude
Rises 08:47:28 0° 27° (NNE) 2,846 ? -18.1°
Reaches altitude 10° 08:50:06 10° 43° (NE) 1,942 ? -18.0°
Maximum altitude 08:53:18 21° 93° (E) 1,365 ? -17.8°
Enters shadow 08:55:52 13° 136° (SE) 1,755 ? -17.7°
